This demonstration page uses our WeatherBlox Daily Observations layout. Learn more.

Left ArrowRight Arrow

Hourly Observations for September 29, 2018

Temp ( °F °C ) Dew Point ( °F °C ) Humidity (%) Winds ( mph kmh ) Pressure ( in mb ) Visibility ( mi km ) Precip ( " mm )
12:54 am 00:54 Cloudy 49 9.4 43 6.1 80 80 SSW 3 6 30.33 1027 10 16 N/A
1:54 am 01:54 Cloudy 49 9.4 43 6.1 80 80 N N/A 30.32 1027 10 16 N/A
2:54 am 02:54 Cloudy 49 9.4 39 3.9 69 69 ESE 6 9 30.31 1026 10 16 N/A
3:54 am 03:54 Cloudy 49 9.4 39 3.9 69 69 SE 8 13 30.28 1026 10 16 N/A
4:54 am 04:54 Cloudy 49 9.4 38 3.3 66 66 SE 8 13 30.28 1025 10 16 N/A
5:54 am 05:54 Cloudy 49 9.4 38 3.3 66 66 SE 8 13 30.27 1025 10 16 N/A
6:54 am 06:54 Cloudy 49 9.4 38 3.3 66 66 SE 8 13 30.26 1025 10 16 N/A
7:49 am 07:49 Cloudy with Light Rain 48 9 39 4 71 71 ESE 10 17 30.27 1025 10 16 N/A
7:54 am 07:54 Cloudy with Light Rain 47 8.3 40 4.4 77 77 ESE 10 17 30.25 1024 10 16 N/A
8:54 am 08:54 Cloudy with Light Rain 47 8.3 41 5 80 80 ESE 12 19 30.23 1024 10 16 N/A
9:09 am 09:09 Cloudy 47 8.3 41 5 80 80 ESE 14 22 30.27 1025 9 14 N/A
9:25 am 09:25 Cloudy with Mist and Fog 46 7.8 42 5.6 86 86 ESE 14 22 30.24 1024 3 5 N/A
9:33 am 09:33 Cloudy with Mist and Fog 46 7.8 43 6.1 89 89 ESE 13 20 30.24 1024 3 4 N/A
9:41 am 09:41 Cloudy with Mist and Fog 46 7.8 43 6.1 89 89 ESE 12 19 30.24 1024 3 5 N/A
9:54 am 09:54 Cloudy with Light Rain 45 7.2 43 6.1 93 93 SE 12 19 30.22 1023 2 3 N/A
10:09 am 10:09 Cloudy with Light Rain 46 7.8 44 6.7 93 93 ESE 7 11 30.24 1024 2 3 N/A
10:31 am 10:31 Cloudy with Rain 46 7.8 44 6.7 93 93 ESE 12 19 30.24 1024 2 3 0.01 0.25
10:54 am 10:54 Cloudy with Light Rain 46 7.8 44 6.7 93 93 ESE 9 15 30.22 1023 5 8 0.03 0.76
11:40 am 11:40 Cloudy with Light Rain 47 8.3 45 7.2 93 93 SE 9 15 30.21 1023 3 4 0.01 0.25
11:54 am 11:54 Cloudy with Light Rain 47 8.3 45 7.2 93 93 ESE 8 13 30.19 1022 3 4 0.02 0.51
12:15 pm 12:15 Cloudy with Mist and Fog 47 8.3 45 7.2 93 93 SE 8 13 30.21 1023 3 5 N/A
12:46 pm 12:46 Cloudy with Mist and Fog 48 8.9 46 7.8 93 93 SSE 12 19 30.18 1022 2 3 N/A
12:54 pm 12:54 Cloudy with Mist and Fog 48 8.9 46 7.8 93 93 SE 12 19 30.16 1022 2 3 N/A
1:10 pm 13:10 Cloudy with Mist and Fog 48 8.9 46 7.8 93 93 SE 12 19 30.18 1022 3 5 N/A
1:20 pm 13:20 Cloudy with Mist and Fog 48 8.9 46 7.8 93 93 SE 12 19 30.18 1022 3 4 N/A
1:32 pm 13:32 Cloudy with Mist and Fog 49 9.4 46 7.8 90 90 SE 10 17 30.18 1022 5 8 N/A
1:54 pm 13:54 Cloudy 49 9.4 47 8.3 93 93 SE 10 17 30.13 1020 10 16 N/A
2:18 pm 14:18 Cloudy 49 9.4 45 7.2 86 86 SE 13 20 30.15 1021 10 16 N/A
2:54 pm 14:54 Cloudy 49 9.4 46 7.8 90 90 SE 10 17 30.11 1020 10 16 N/A
3:54 pm 15:54 Cloudy with Mist and Fog 49 9.4 47 8.3 93 93 SE 10 17 30.10 1019 3 4 N/A
4:05 pm 16:05 Cloudy with Mist and Fog 49 9.4 47 8.3 93 93 SE 7 11 30.12 1020 3 5 N/A
4:29 pm 16:29 Cloudy with Mist and Fog 49 9.4 47 8.3 93 93 SE 8 13 30.12 1020 3 4 N/A
4:41 pm 16:41 Cloudy with Mist and Fog 50 10 47 8.3 89 89 SE 7 11 30.12 1020 3 5 N/A
4:54 pm 16:54 Cloudy with Mist and Fog 50 10 48 8.9 93 93 SE 7 11 30.10 1019 3 4 N/A
5:54 pm 17:54 Cloudy with Light Rain 50 10 48 8.9 93 93 ESE 5 7 30.10 1019 3 4 N/A
6:01 pm 18:01 Cloudy with Light Rain 50 10 48 8.9 93 93 ESE 7 11 30.12 1020 2 3 N/A
6:12 pm 18:12 Cloudy with Mist and Fog 49 9.4 48 8.9 97 97 ESE 8 13 30.12 1020 3 4 N/A
6:29 pm 18:29 Cloudy with Mist and Fog 50 10 48 8.9 93 93 ESE 8 13 30.12 1020 3 5 N/A
6:54 pm 18:54 Cloudy with Mist and Fog 49 9.4 48 8.9 97 97 E 6 9 30.10 1019 3 5 N/A
7:41 pm 19:41 Cloudy 50 10 48 8.9 93 93 SE 6 9 30.12 1020 8 13 N/A
7:54 pm 19:54 Cloudy 50 10 48 8.9 93 93 SE 6 9 30.10 1019 8 13 N/A
8:54 pm 20:54 Cloudy with Mist and Fog 50 10 48 8.9 93 93 ESE 5 7 30.12 1020 3 5 N/A
9:24 pm 21:24 Cloudy with Mist and Fog 50 10 49 9.4 96 96 E 3 6 30.15 1021 3 4 N/A
9:37 pm 21:37 Cloudy with Mist and Fog 50 10 49 9.4 96 96 N N/A 30.15 1021 3 5 N/A
9:54 pm 21:54 Cloudy with Mist and Fog 50 10 49 9.4 96 96 E 3 6 30.13 1020 5 8 N/A
10:31 pm 22:31 Cloudy with Mist and Fog 50 10 49 9.4 96 96 N N/A 30.15 1021 4 6 N/A
10:42 pm 22:42 Cloudy with Mist and Fog 50 10 49 9.4 96 96 N N/A 30.15 1021 4 6 N/A
10:54 pm 22:54 Cloudy with Mist and Fog 50 10 49 9.4 96 96 NE 3 6 30.14 1021 4 6 N/A
11:03 pm 23:03 Cloudy with Mist and Fog 50 10 49 9.4 96 96 NE 3 6 30.15 1021 3 5 N/A
11:54 pm 23:54 Cloudy 50 10 49 9.4 96 96 NNE 5 7 30.13 1020 10 16 N/A

Powered by AerisWeather